• In Deutschland
  • Länderverzeichnis
  • Für 7 Tage
  • Wassertemperatur
  • Satellitenkarten
  • Wetterkarte
  • Widgets
  • user-avatar
    Anmelden

    Stündliche Wetter Ingolstadt

    Heute, 17 Januar, Mittwoch

    Zeit Temperatur Niederschläge Wind Luftdruck Luftfeuchtigkeit
    00:00 +2°C° 0,4 mm 3 m/S 715 mmHg 91%
    01:00 +2°C° 0 mm 2 m/S 715 mmHg 93%
    02:00 +1°C° 0,4 mm 3 m/S 714 mmHg 93%
    03:00 +1°C° 0,4 mm 3 m/S 714 mmHg 93%
    04:00 +1°C° 0,4 mm 3 m/S 713 mmHg 92%
    05:00 0°C° 0,3 mm 5 m/S 713 mmHg 89%
    06:00 -1°C° 0,3 mm 6 m/S 713 mmHg 86%
    07:00 -1°C° 0 mm 6 m/S 714 mmHg 84%
    08:00 -1°C° 0,4 mm 7 m/S 715 mmHg 83%
    09:00 -1°C° 0,4 mm 8 m/S 716 mmHg 82%
    10:00 -1°C° 0,4 mm 8 m/S 716 mmHg 80%
    11:00 -1°C° 0,3 mm 8 m/S 717 mmHg 78%
    12:00 -1°C° 0,3 mm 9 m/S 718 mmHg 75%
    13:00 -1°C° 0 mm 8 m/S 719 mmHg 74%
    14:00 -1°C° 0,1 mm 7 m/S 720 mmHg 74%
    15:00 -2°C° 0,1 mm 7 m/S 720 mmHg 74%
    16:00 -2°C° 0,1 mm 7 m/S 721 mmHg 74%
    17:00 -2°C° 0,1 mm 7 m/S 721 mmHg 76%
    18:00 -2°C° 0,1 mm 8 m/S 722 mmHg 78%
    19:00 -2°C° 0,1 mm 8 m/S 722 mmHg 79%
    20:00 -2°C° 0,1 mm 8 m/S 723 mmHg 80%
    21:00 -2°C° 0,1 mm 7 m/S 723 mmHg 81%
    22:00 -2°C° 0,1 mm 7 m/S 723 mmHg 81%
    23:00 -2°C° 0 mm 7 m/S 724 mmHg 82%

    Morgen, 18 Januar, Donnerstag

    Zeit Temperatur Niederschläge Wind Luftdruck Luftfeuchtigkeit
    00:00 -2°C° 0 mm 6 m/S 724 mmHg 84%
    01:00 -2°C° 0 mm 6 m/S 725 mmHg 85%
    02:00 -1°C° 0,1 mm 5 m/S 725 mmHg 86%
    03:00 -1°C° 0,1 mm 5 m/S 724 mmHg 87%
    04:00 -1°C° 0,1 mm 5 m/S 724 mmHg 87%
    05:00 0°C° 0,3 mm 5 m/S 724 mmHg 87%
    06:00 0°C° 0,3 mm 5 m/S 723 mmHg 86%
    07:00 -1°C° 0,3 mm 6 m/S 722 mmHg 86%
    08:00 0°C° 0,6 mm 7 m/S 721 mmHg 85%
    09:00 0°C° 0,6 mm 8 m/S 720 mmHg 84%
    10:00 +1°C° 0,6 mm 9 m/S 720 mmHg 82%
    11:00 +2°C° 0,1 mm 10 m/S 719 mmHg 82%
    12:00 +3°C° 0,1 mm 10 m/S 718 mmHg 81%
    13:00 +3°C° 0,1 mm 10 m/S 718 mmHg 80%
    14:00 +5°C° 0,2 mm 10 m/S 718 mmHg 80%
    15:00 +5°C° 0,2 mm 10 m/S 718 mmHg 80%
    16:00 +5°C° 0,2 mm 10 m/S 718 mmHg 80%
    17:00 +3°C° 0,7 mm 9 m/S 718 mmHg 81%
    18:00 +4°C° 0,7 mm 8 m/S 719 mmHg 83%
    19:00 +3°C° 0,7 mm 6 m/S 719 mmHg 84%
    20:00 +2°C° 0,5 mm 6 m/S 719 mmHg 85%
    21:00 +2°C° 0,5 mm 5 m/S 719 mmHg 86%
    22:00 +1°C° 0,5 mm 4 m/S 719 mmHg 87%
    23:00 +3°C° 0,6 mm 4 m/S 719 mmHg 87%

    übermorgen, 19 Januar, Freitag

    Zeit Temperatur Niederschläge Wind Luftdruck Luftfeuchtigkeit
    00:00 +2°C° 0,6 mm 5 m/S 719 mmHg 88%
    01:00 +2°C° 0,6 mm 5 m/S 719 mmHg 88%
    02:00 +2°C° 0,2 mm 5 m/S 719 mmHg 87%
    03:00 +2°C° 0,2 mm 5 m/S 719 mmHg 86%
    04:00 +1°C° 0,2 mm 6 m/S 720 mmHg 86%
    05:00 +1°C° 0,1 mm 6 m/S 720 mmHg 84%
    06:00 +1°C° 0,1 mm 6 m/S 721 mmHg 83%
    07:00 -1°C° 0,1 mm 6 m/S 722 mmHg 82%
    08:00 -1°C° 0 mm 6 m/S 722 mmHg 82%
    09:00 -1°C° 0 mm 6 m/S 723 mmHg 82%
    10:00 -1°C° 0 mm 6 m/S 724 mmHg 82%
    11:00 0°C° 0 mm 5 m/S 724 mmHg 80%
    12:00 +1°C° 0 mm 5 m/S 724 mmHg 78%
    13:00 +1°C° 0 mm 5 m/S 725 mmHg 76%
    14:00 +1°C° 0,1 mm 4 m/S 725 mmHg 77%
    15:00 +2°C° 0,1 mm 3 m/S 725 mmHg 79%
    16:00 +1°C° 0,1 mm 3 m/S 725 mmHg 80%
    17:00 +1°C° 0,1 mm 3 m/S 725 mmHg 82%
    18:00 +1°C° 0,1 mm 2 m/S 725 mmHg 85%
    19:00 +1°C° 0,1 mm 2 m/S 725 mmHg 88%
    20:00 -1°C° 0 mm 3 m/S 725 mmHg 89%
    21:00 -1°C° 0 mm 3 m/S 725 mmHg 90%
    22:00 -1°C° 0 mm 3 m/S 725 mmHg 91%
    23:00 -1°C° 0,2 mm 3 m/S 725 mmHg 91%

    20 Januar, Samstag

    Zeit Temperatur Niederschläge Wind Luftdruck Luftfeuchtigkeit
    00:00 -1°C° 0,2 mm 3 m/S 725 mmHg 91%
    01:00 -1°C° 0,2 mm 4 m/S 724 mmHg 91%
    02:00 -1°C° 0,5 mm 4 m/S 724 mmHg 89%
    03:00 -1°C° 0,5 mm 5 m/S 724 mmHg 88%
    04:00 -1°C° 0,5 mm 5 m/S 724 mmHg 87%
    05:00 -1°C° 0,3 mm 5 m/S 724 mmHg 86%
    06:00 -1°C° 0,3 mm 5 m/S 724 mmHg 86%
    07:00 -1°C° 0,3 mm 5 m/S 724 mmHg 86%
    08:00 -2°C° 0,1 mm 5 m/S 724 mmHg 85%
    09:00 -2°C° 0,1 mm 5 m/S 725 mmHg 85%
    10:00 -2°C° 0,1 mm 5 m/S 725 mmHg 85%
    11:00 -1°C° 0,1 mm 5 m/S 725 mmHg 82%
    12:00 -1°C° 0,1 mm 4 m/S 725 mmHg 80%
    13:00 -1°C° 0,1 mm 4 m/S 724 mmHg 77%
    14:00 0°C° 0,1 mm 3 m/S 724 mmHg 80%
    15:00 +1°C° 0,1 mm 2 m/S 724 mmHg 82%
    16:00 +2°C° 0,1 mm 1 m/S 723 mmHg 85%
    17:00 +1°C° 0,2 mm 1 m/S 724 mmHg 88%
    18:00 +1°C° 0,2 mm 1 m/S 724 mmHg 91%
    19:00 0°C° 0,2 mm 1 m/S 724 mmHg 93%
    20:00 0°C° 0,1 mm 1 m/S 724 mmHg 94%
    21:00 0°C° 0,1 mm 1 m/S 725 mmHg 94%
    22:00 -1°C° 0,1 mm 1 m/S 725 mmHg 95%
    23:00 -1°C° 0 mm 1 m/S 726 mmHg 95%

    21 Januar, Sonntag

    Zeit Temperatur Niederschläge Wind Luftdruck Luftfeuchtigkeit
    00:00 -3°C° 0 mm 2 m/S 726 mmHg 95%
    01:00 -4°C° 0 mm 2 m/S 727 mmHg 95%
    02:00 -4°C° 0 mm 2 m/S 728 mmHg 95%
    03:00 -4°C° 0 mm 2 m/S 728 mmHg 95%
    04:00 -4°C° 0 mm 2 m/S 729 mmHg 95%
    05:00 -4°C° 0 mm 2 m/S 729 mmHg 95%
    06:00 -5°C° 0 mm 3 m/S 730 mmHg 94%
    07:00 -5°C° 0 mm 3 m/S 730 mmHg 94%
    08:00 -5°C° 0 mm 3 m/S 731 mmHg 92%
    09:00 -4°C° 0 mm 3 m/S 731 mmHg 89%
    10:00 -2°C° 0 mm 3 m/S 732 mmHg 87%
    11:00 -1°C° 0 mm 3 m/S 732 mmHg 84%
    12:00 -1°C° 0 mm 3 m/S 732 mmHg 81%
    13:00 0°C° 0 mm 3 m/S 732 mmHg 78%
    14:00 +1°C° 0 mm 2 m/S 732 mmHg 79%
    15:00 +1°C° 0 mm 2 m/S 732 mmHg 81%
    16:00 +2°C° 0 mm 1 m/S 731 mmHg 82%
    17:00 +2°C° 0,1 mm 1 m/S 731 mmHg 85%
    18:00 +1°C° 0,1 mm 2 m/S 731 mmHg 87%
    19:00 -1°C° 0,1 mm 2 m/S 731 mmHg 90%
    20:00 -1°C° 0,8 mm 2 m/S 730 mmHg 91%
    21:00 -1°C° 0,8 mm 3 m/S 729 mmHg 93%
    22:00 -1°C° 0,8 mm 3 m/S 729 mmHg 95%
    23:00 0°C° 0,8 mm 3 m/S 728 mmHg 95%

    22 Januar, Montag

    Zeit Temperatur Niederschläge Wind Luftdruck Luftfeuchtigkeit
    00:00 0°C° 0,8 mm 3 m/S 728 mmHg 96%
    01:00 0°C° 0,8 mm 3 m/S 728 mmHg 96%
    02:00 0°C° 1 mm 3 m/S 727 mmHg 96%
    03:00 +1°C° 1 mm 3 m/S 727 mmHg 97%
    04:00 +1°C° 1 mm 3 m/S 727 mmHg 98%
    05:00 +2°C° 0,7 mm 3 m/S 728 mmHg 98%
    06:00 +2°C° 0,7 mm 3 m/S 728 mmHg 98%
    07:00 +3°C° 0,7 mm 3 m/S 728 mmHg 98%
    08:00 +3°C° 0,2 mm 3 m/S 729 mmHg 98%
    09:00 +3°C° 0,2 mm 3 m/S 729 mmHg 99%
    10:00 +4°C° 0,2 mm 3 m/S 730 mmHg 99%
    11:00 +4°C° 0,1 mm 3 m/S 730 mmHg 99%
    12:00 +4°C° 0,1 mm 3 m/S 731 mmHg 99%
    13:00 +4°C° 0,1 mm 3 m/S 731 mmHg 99%
    14:00 +5°C° 0,1 mm 3 m/S 731 mmHg 99%
    15:00 +5°C° 0,1 mm 3 m/S 731 mmHg 98%
    16:00 +5°C° 0,1 mm 3 m/S 731 mmHg 98%
    17:00 +5°C° 1,1 mm 3 m/S 731 mmHg 98%
    18:00 +5°C° 1,1 mm 4 m/S 731 mmHg 97%
    19:00 +4°C° 1,1 mm 4 m/S 731 mmHg 97%
    20:00 +5°C° 0,9 mm 4 m/S 732 mmHg 96%
    21:00 +6°C° 0,9 mm 4 m/S 732 mmHg 96%
    22:00 +6°C° 0,9 mm 5 m/S 732 mmHg 95%
    23:00 +6°C° 0,1 mm 5 m/S 732 mmHg 95%
    Mehr zeigen